| time (UTC) | temp F | wind direction | speed knots | gust knots | rain 1hr in | rain 24hr in | rain mn in | humidity % | barometer mb |
| 20260505083647 | 56 | 59 | 13.0 | 20.9 | 0.00 | 0.05 | 0.05 | 76 | 1005.7 |
| 20260505083151 | 56 | 58 | 13.9 | 24.3 | 0.02 | 0.05 | 0.05 | 75 | 1005.6 |
| 20260505082633 | 56 | 69 | 13.0 | 24.3 | 0.05 | 0.05 | 0.05 | 76 | 1005.4 |
| 20260505082135 | 56 | 57 | 11.3 | 23.5 | 0.05 | 0.05 | 0.05 | 78 | 1005.3 |
| 20260505081619 | 56 | 40 | 9.6 | 20.0 | 0.05 | 0.05 | 0.05 | 80 | 1005.7 |
| 20260505081120 | 56 | 45 | 7.8 | 13.9 | 0.05 | 0.05 | 0.05 | 82 | 1005.9 |
| 20260505080619 | 57 | 55 | 8.7 | 14.8 | 0.05 | 0.05 | 0.05 | 83 | 1005.7 |
| 20260505080058 | 57 | 5 | 9.6 | 16.5 | 0.05 | 0.05 | 0.05 | 84 | 1005.6 |
| 20260505075555 | 58 | 37 | 10.4 | 18.2 | 0.05 | 0.05 | 0.05 | 84 | 1005.7 |
| 20260505075058 | 58 | 59 | 8.7 | 18.2 | 0.05 | 0.05 | 0.05 | 84 | 1005.6 |
| 20260505074759 | 59 | 65 | 6.1 | 14.8 | 0.05 | 0.05 | 0.05 | 86 | 1005.5 |
| 20260505074036 | 59 | 44 | 4.3 | 12.2 | 0.05 | 0.05 | 0.05 | 85 | 1005.6 |
| 20260505073737 | 60 | 33 | 7.0 | 11.3 | 0.04 | 0.04 | 0.04 | 84 | 1005.7 |
| 20260505072953 | 60 | 83 | 8.7 | 13.0 | 0.02 | 0.02 | 0.02 | 83 | 1005.1 |
| 20260505072430 | 60 | 93 | 8.7 | 15.6 | 0.00 | 0.00 | 0.00 | 82 | 1004.4 |
| 20260505071912 | 61 | 71 | 7.8 | 15.6 | 0.00 | 0.00 | 0.00 | 81 | 1004.7 |
| 20260505071410 | 61 | 51 | 9.6 | 16.5 | 0.00 | 0.00 | 0.00 | 80 | 1004.8 |
| 20260505070847 | 61 | 44 | 10.4 | 16.5 | 0.00 | 0.00 | 0.00 | 78 | 1004.5 |
| 20260505070340 | 62 | 65 | 8.7 | 15.6 | 0.00 | 0.00 | 0.00 | 78 | 1004.5 |
| 20260505070040 | 62 | 46 | 8.7 | 15.6 | 0.00 | 0.00 | 0.00 | 77 | 1005.1 |
| 20260505065535 | 63 | 43 | 10.4 | 16.5 | 0.00 | 0.00 | 0.00 | 76 | 1004.8 |
| 20260505064814 | 64 | 52 | 10.4 | 20.9 | 0.00 | 0.00 | 0.00 | 75 | 1004.7 |
| 20260505064249 | 65 | 67 | 9.6 | 20.9 | 0.00 | 0.00 | 0.00 | 77 | 1004.4 |
| 20260505064012 | 66 | 39 | 6.1 | 13.0 | 0.00 | 0.00 | 0.00 | 78 | 1004.4 |
| 20260505063241 | 67 | 35 | 2.6 | 12.2 | 0.00 | 0.00 | 0.00 | 81 | 1004.4 |
| 20260505062718 | 67 | 5 | 1.7 | 4.3 | 0.00 | 0.00 | 0.00 | 82 | 1004.3 |
| 20260505062216 | 67 | 17 | 0.9 | 4.3 | 0.00 | 0.00 | 0.00 | 82 | 1004.1 |
| 20260505061716 | 67 | 5 | 0.9 | 5.2 | 0.00 | 0.00 | 0.00 | 82 | 1004.0 |
| 20260505061211 | 67 | 5 | 0.9 | 5.2 | 0.00 | 0.00 | 0.00 | 82 | 1003.8 |
| 20260505060934 | 67 | 76 | 0.9 | 2.6 | 0.00 | 0.00 | 0.00 | 82 | 1003.7 |
| 20260505060142 | 67 | 37 | 4.3 | 14.8 | 0.00 | 0.00 | 0.00 | 83 | 1003.7 |
| 20260505055639 | 66 | 44 | 2.6 | 14.8 | 0.00 | 0.00 | 0.00 | 83 | 1003.4 |
| 20260505055135 | 66 | 28 | 0.9 | 5.2 | 0.00 | 0.00 | 0.00 | 83 | 1003.8 |
| 20260505054632 | 66 | 58 | 1.7 | 4.3 | 0.00 | 0.00 | 0.00 | 82 | 1003.8 |
| 20260505054106 | 67 | 355 | 0.9 | 3.5 | 0.00 | 0.00 | 0.00 | 81 | 1003.8 |
| 20260505053756 | 67 | 355 | 0.9 | 1.7 | 0.00 | 0.00 | 0.00 | 80 | 1003.8 |
| 20260505053040 | 67 | 103 | 0.9 | 1.7 | 0.00 | 0.00 | 0.00 | 80 | 1003.4 |
| 20260505052739 | 67 | 126 | 0.9 | 4.3 | 0.00 | 0.00 | 0.00 | 79 | 1003.1 |
| 20260505052009 | 67 | 144 | 0.9 | 4.3 | 0.00 | 0.00 | 0.00 | 79 | 1003.2 |
| 20260505051503 | 68 | 160 | 0.9 | 1.7 | 0.00 | 0.00 | 0.00 | 79 | 1003.0 |
| 20260505051001 | 68 | 120 | 0.9 | 1.7 | 0.00 | 0.00 | 0.00 | 79 | 1003.0 |
| 20260505050433 | 68 | 90 | 0.9 | 3.5 | 0.00 | 0.00 | 0.00 | 78 | 1003.0 |
| 20260505041758 | 70 | 130 | 4.3 | 10.4 | 0.00 | 0.00 | 0.00 | 75 | 1002.7 |
| 20260505041516 | 71 | 165 | 5.2 | 10.4 | 0.00 | 0.00 | 0.00 | 75 | 1002.7 |
| 20260505041008 | 71 | 132 | 5.2 | 10.4 | 0.00 | 0.00 | 0.00 | 74 | 1002.5 |
| 20260505040248 | 71 | 132 | 3.5 | 9.6 | 0.00 | 0.00 | 0.00 | 74 | 1002.6 |
| 20260505035720 | 71 | 117 | 3.5 | 7.0 | 0.00 | 0.00 | 0.00 | 73 | 1002.8 |
| 20260505035441 | 72 | 128 | 2.6 | 7.8 | 0.00 | 0.00 | 0.00 | 72 | 1003.1 |
| 20260505034652 | 72 | 136 | 2.6 | 9.6 | 0.00 | 0.00 | 0.00 | 72 | 1003.2 |
| 20260505034151 | 72 | 131 | 2.6 | 9.6 | 0.00 | 0.00 | 0.00 | 71 | 1003.3 |
| 20260505033845 | 72 | 96 | 2.6 | 10.4 | 0.00 | 0.00 | 0.00 | 71 | 1003.3 |
| 20260505033123 | 72 | 159 | 4.3 | 13.0 | 0.00 | 0.00 | 0.00 | 71 | 1003.1 |
| 20260505032610 | 72 | 107 | 6.1 | 13.0 | 0.00 | 0.00 | 0.00 | 71 | 1003.1 |
| 20260505032112 | 73 | 123 | 7.0 | 13.9 | 0.00 | 0.00 | 0.00 | 71 | 1003.2 |
| 20260505031546 | 73 | 136 | 7.8 | 13.9 | 0.00 | 0.00 | 0.00 | 70 | 1003.5 |
| 20260505031045 | 73 | 161 | 6.1 | 13.0 | 0.00 | 0.00 | 0.00 | 70 | 1003.6 |
| 20260505030520 | 73 | 127 | 5.2 | 9.6 | 0.00 | 0.00 | 0.00 | 69 | 1003.6 |
| 20260505030017 | 73 | 157 | 5.2 | 9.6 | 0.00 | 0.00 | 0.00 | 69 | 1003.8 |
| 20260505025509 | 73 | 167 | 3.5 | 9.6 | 0.00 | 0.00 | 0.00 | 69 | 1003.6 |
| 20260505025011 | 73 | 165 | 3.5 | 9.6 | 0.00 | 0.00 | 0.00 | 69 | 1003.5 |
| 20260505024447 | 73 | 155 | 1.7 | 9.6 | 0.00 | 0.00 | 0.00 | 68 | 1003.6 |
| 20260505023921 | 73 | 142 | 2.6 | 9.6 | 0.00 | 0.00 | 0.00 | 68 | 1003.5 |
| 20260505023648 | 74 | 130 | 2.6 | 9.6 | 0.00 | 0.00 | 0.00 | 67 | 1003.6 |
| 20260505022921 | 74 | 183 | 1.7 | 7.8 | 0.00 | 0.00 | 0.00 | 67 | 1003.6 |
| 20260505022612 | 74 | 163 | 0.9 | 7.8 | 0.00 | 0.00 | 0.00 | 66 | 1003.7 |
| 20260505021830 | 74 | 158 | 1.7 | 7.0 | 0.00 | 0.00 | 0.00 | 66 | 1003.5 |
| 20260505021307 | 74 | 137 | 1.7 | 7.0 | 0.00 | 0.00 | 0.00 | 66 | 1003.4 |
| 20260505020745 | 74 | 185 | 2.6 | 9.6 | 0.00 | 0.00 | 0.00 | 65 | 1003.2 |
| 20260505020447 | 74 | 169 | 3.5 | 11.3 | 0.00 | 0.00 | 0.00 | 65 | 1003.0 |
| 20260505015934 | 74 | 178 | 5.2 | 11.3 | 0.00 | 0.00 | 0.00 | 64 | 1002.7 |
| 20260505015209 | 74 | 165 | 6.1 | 11.3 | 0.00 | 0.00 | 0.00 | 64 | 1002.6 |
| 20260505014710 | 74 | 163 | 6.1 | 11.3 | 0.00 | 0.00 | 0.00 | 63 | 1002.4 |
| 20260505014209 | 74 | 146 | 6.1 | 12.2 | 0.00 | 0.00 | 0.00 | 63 | 1002.0 |
| 20260505013640 | 75 | 169 | 6.1 | 12.2 | 0.00 | 0.00 | 0.00 | 62 | 1002.2 |
| 20260505013142 | 75 | 135 | 3.5 | 9.6 | 0.00 | 0.00 | 0.00 | 62 | 1002.2 |
| 20260505012621 | 75 | 153 | 3.5 | 9.6 | 0.00 | 0.00 | 0.00 | 61 | 1002.2 |
| 20260505012120 | 75 | 140 | 2.6 | 9.6 | 0.00 | 0.00 | 0.00 | 61 | 1002.3 |
| 20260505011558 | 75 | 164 | 3.5 | 8.7 | 0.00 | 0.00 | 0.00 | 60 | 1002.2 |
| 20260505011033 | 76 | 119 | 4.3 | 10.4 | 0.00 | 0.00 | 0.00 | 59 | 1002.2 |
| 20260505010511 | 76 | 129 | 5.2 | 14.8 | 0.00 | 0.00 | 0.00 | 59 | 1002.2 |
| 20260505010231 | 76 | 143 | 5.2 | 14.8 | 0.00 | 0.00 | 0.00 | 59 | 1002.0 |
| 20260505005510 | 76 | 183 | 5.2 | 11.3 | 0.00 | 0.00 | 0.00 | 58 | 1001.9 |
| 20260505005011 | 76 | 155 | 5.2 | 11.3 | 0.00 | 0.00 | 0.00 | 57 | 1001.9 |
| 20260505004445 | 77 | 144 | 5.2 | 10.4 | 0.00 | 0.00 | 0.00 | 57 | 1001.9 |
| 20260505003940 | 77 | 171 | 5.2 | 11.3 | 0.00 | 0.00 | 0.00 | 56 | 1001.9 |
| 20260505003435 | 77 | 173 | 4.3 | 11.3 | 0.00 | 0.00 | 0.00 | 56 | 1002.0 |
| 20260505002912 | 77 | 206 | 4.3 | 9.6 | 0.00 | 0.00 | 0.00 | 56 | 1002.2 |
| 20260505002346 | 77 | 157 | 5.2 | 13.0 | 0.00 | 0.00 | 0.00 | 55 | 1002.2 |
| 20260505002041 | 78 | 162 | 6.1 | 13.0 | 0.00 | 0.00 | 0.00 | 54 | 1002.3 |
| 20260505001251 | 78 | 187 | 6.1 | 12.2 | 0.00 | 0.00 | 0.00 | 54 | 1002.4 |
| 20260505000748 | 78 | 157 | 7.0 | 13.0 | 0.00 | 0.00 | 0.00 | 54 | 1002.3 |
| 20260505000219 | 78 | 180 | 7.8 | 14.8 | 0.00 | 0.00 | 0.00 | 53 | 1002.4 |
| 20260504235717 | 78 | 167 | 8.7 | 14.8 | 0.00 | 0.00 | 0.00 | 53 | 1002.4 |
| 20260504235213 | 78 | 152 | 8.7 | 15.6 | 0.00 | 0.00 | 0.00 | 53 | 1002.3 |
| 20260504234934 | 78 | 160 | 8.7 | 16.5 | 0.00 | 0.00 | 0.00 | 52 | 1002.5 |
| 20260504234207 | 79 | 184 | 7.8 | 16.5 | 0.00 | 0.00 | 0.00 | 52 | 1002.4 |
| 20260504233705 | 79 | 171 | 7.8 | 11.3 | 0.00 | 0.00 | 0.00 | 52 | 1002.5 |
| 20260504233140 | 79 | 175 | 7.8 | 18.2 | 0.00 | 0.00 | 0.00 | 51 | 1002.5 |
| 20260504232635 | 79 | 155 | 7.0 | 18.2 | 0.00 | 0.00 | 0.00 | 51 | 1002.5 |
| 20260504232134 | 79 | 149 | 7.8 | 14.8 | 0.00 | 0.00 | 0.00 | 50 | 1002.5 |
| 20260504231605 | 79 | 223 | 7.0 | 13.9 | 0.00 | 0.00 | 0.00 | 51 | 1002.6 |
| 20260504231104 | 79 | 250 | 5.2 | 13.0 | 0.00 | 0.00 | 0.00 | 51 | 1002.5 |
| 20260504230535 | 80 | 188 | 6.1 | 13.9 | 0.00 | 0.00 | 0.00 | 51 | 1002.4 |
| 20260504230255 | 80 | 147 | 6.1 | 13.9 | 0.00 | 0.00 | 0.00 | 50 | 1002.5 |
| 20260504225505 | 80 | 207 | 7.0 | 13.0 | 0.00 | 0.00 | 0.00 | 51 | 1002.4 |
| 20260504225004 | 80 | 196 | 8.7 | 15.6 | 0.00 | 0.00 | 0.00 | 50 | 1002.5 |
| 20260504224438 | 80 | 217 | 7.8 | 17.4 | 0.00 | 0.00 | 0.00 | 49 | 1002.4 |
| 20260504223909 | 80 | 212 | 7.0 | 16.5 | 0.00 | 0.00 | 0.00 | 50 | 1002.4 |
| 20260504223409 | 80 | 197 | 7.0 | 15.6 | 0.00 | 0.00 | 0.00 | 50 | 1002.4 |
| 20260504222839 | 80 | 155 | 7.0 | 13.9 | 0.00 | 0.00 | 0.00 | 49 | 1002.4 |
| 20260504222336 | 80 | 190 | 7.8 | 16.5 | 0.00 | 0.00 | 0.00 | 48 | 1002.4 |
| 20260504221834 | 80 | 190 | 7.8 | 17.4 | 0.00 | 0.00 | 0.00 | 48 | 1002.4 |
| 20260504221329 | 80 | 173 | 7.8 | 17.4 | 0.00 | 0.00 | 0.00 | 48 | 1002.4 |
| 20260504220827 | 80 | 152 | 8.7 | 17.4 | 0.00 | 0.00 | 0.00 | 47 | 1002.5 |
| 20260504220524 | 80 | 151 | 9.6 | 17.4 | 0.00 | 0.00 | 0.00 | 47 | 1002.5 |
| 20260504215753 | 81 | 153 | 10.4 | 15.6 | 0.00 | 0.00 | 0.00 | 47 | 1002.5 |
| 20260504215513 | 81 | 215 | 8.7 | 15.6 | 0.00 | 0.00 | 0.00 | 47 | 1002.5 |
| 20260504214723 | 82 | 163 | 8.7 | 19.1 | 0.00 | 0.00 | 0.00 | 47 | 1002.5 |
| 20260504214222 | 82 | 208 | 9.6 | 19.1 | 0.00 | 0.00 | 0.00 | 45 | 1002.5 |
| 20260504213717 | 82 | 165 | 7.8 | 16.5 | 0.00 | 0.00 | 0.00 | 46 | 1002.5 |
| 20260504213215 | 82 | 131 | 7.0 | 13.9 | 0.00 | 0.00 | 0.00 | 46 | 1002.6 |
| 20260504212712 | 82 | 171 | 7.8 | 13.9 | 0.00 | 0.00 | 0.00 | 45 | 1002.6 |
| 20260504212210 | 82 | 167 | 7.8 | 15.6 | 0.00 | 0.00 | 0.00 | 46 | 1002.6 |
| 20260504211657 | 82 | 186 | 7.8 | 15.6 | 0.00 | 0.00 | 0.00 | 45 | 1002.7 |
| 20260504211200 | 83 | 209 | 7.8 | 13.9 | 0.00 | 0.00 | 0.00 | 46 | 1002.7 |
| 20260504210631 | 83 | 169 | 7.0 | 13.0 | 0.00 | 0.00 | 0.00 | 44 | 1002.7 |
| 20260504210109 | 83 | 178 | 7.0 | 13.9 | 0.00 | 0.00 | 0.00 | 46 | 1002.7 |
| 20260504205539 | 83 | 178 | 7.0 | 13.9 | 0.00 | 0.00 | 0.00 | 46 | 1002.8 |
| 20260504205036 | 83 | 232 | 7.8 | 14.8 | 0.00 | 0.00 | 0.00 | 45 | 1002.8 |
| 20260504204536 | 83 | 212 | 8.7 | 14.8 | 0.00 | 0.00 | 0.00 | 45 | 1002.8 |
| 20260504204042 | 83 | 147 | 7.0 | 13.9 | 0.00 | 0.00 | 0.00 | 44 | 1003.0 |
| 20260504203527 | 84 | 232 | 4.3 | 11.3 | 0.00 | 0.00 | 0.00 | 45 | 1003.0 |
| 20260504203253 | 83 | 190 | 4.3 | 10.4 | 0.00 | 0.00 | 0.00 | 44 | 1003.1 |
| 20260504202457 | 83 | 171 | 7.8 | 15.6 | 0.00 | 0.00 | 0.00 | 45 | 1003.2 |
| 20260504201954 | 83 | 223 | 6.1 | 15.6 | 0.00 | 0.00 | 0.00 | 44 | 1003.3 |
| 20260504201451 | 83 | 245 | 4.3 | 11.3 | 0.00 | 0.00 | 0.00 | 47 | 1003.2 |
| 20260504200947 | 82 | 167 | 7.0 | 10.4 | 0.00 | 0.00 | 0.00 | 45 | 1003.5 |
| 20260504200706 | 83 | 163 | 6.1 | 13.0 | 0.00 | 0.00 | 0.00 | 44 | 1003.5 |
| 20260504200204 | 83 | 173 | 7.0 | 13.0 | 0.00 | 0.00 | 0.00 | 46 | 1003.5 |
| 20260504195437 | 82 | 203 | 7.0 | 13.0 | 0.00 | 0.00 | 0.00 | 46 | 1003.5 |
| 20260504194936 | 82 | 145 | 6.1 | 14.8 | 0.00 | 0.00 | 0.00 | 46 | 1003.6 |
| 20260504194410 | 82 | 167 | 6.1 | 14.8 | 0.00 | 0.00 | 0.00 | 46 | 1003.7 |
| 20260504193905 | 82 | 229 | 6.1 | 13.9 | 0.00 | 0.00 | 0.00 | 45 | 1003.9 |
| 20260504193404 | 82 | 238 | 6.1 | 11.3 | 0.00 | 0.00 | 0.00 | 44 | 1003.9 |
| 20260504192921 | 82 | 223 | 5.2 | 12.2 | 0.00 | 0.00 | 0.00 | 44 | 1004.1 |
| 20260504191831 | 82 | 193 | 4.3 | 10.4 | 0.00 | 0.00 | 0.00 | 47 | 1004.1 |
| 20260504191303 | 81 | 192 | 4.3 | 12.2 | 0.00 | 0.00 | 0.00 | 45 | 1004.1 |
| 20260504190803 | 81 | 227 | 6.1 | 15.6 | 0.00 | 0.00 | 0.00 | 45 | 1004.2 |
| 20260504190238 | 81 | 212 | 4.3 | 15.6 | 0.00 | 0.00 | 0.00 | 45 | 1004.3 |
| 20260504185711 | 80 | 204 | 5.2 | 12.2 | 0.00 | 0.00 | 0.00 | 44 | 1004.2 |
| 20260504185146 | 81 | 242 | 6.1 | 12.2 | 0.00 | 0.00 | 0.00 | 45 | 1004.3 |
| 20260504184623 | 80 | 257 | 4.3 | 10.4 | 0.00 | 0.00 | 0.00 | 47 | 1004.3 |
| 20260504184056 | 80 | 225 | 3.5 | 9.6 | 0.00 | 0.00 | 0.00 | 48 | 1004.4 |
| 20260504183555 | 79 | 221 | 5.2 | 12.2 | 0.00 | 0.00 | 0.00 | 47 | 1004.5 |
| 20260504183033 | 79 | 223 | 7.0 | 12.2 | 0.00 | 0.00 | 0.00 | 48 | 1004.4 |
| 20260504182514 | 79 | 235 | 7.0 | 14.8 | 0.00 | 0.00 | 0.00 | 48 | 1004.4 |
| 20260504182011 | 79 | 199 | 7.0 | 14.8 | 0.00 | 0.00 | 0.00 | 47 | 1004.7 |
| 20260504181450 | 79 | 213 | 4.3 | 8.7 | 0.00 | 0.00 | 0.00 | 46 | 1004.7 |
| 20260504180935 | 79 | 211 | 4.3 | 9.6 | 0.00 | 0.00 | 0.00 | 49 | 1004.8 |
| 20260504180434 | 79 | 224 | 4.3 | 8.7 | 0.00 | 0.00 | 0.00 | 48 | 1005.0 |
| 20260504175920 | 78 | 155 | 5.2 | 10.4 | 0.00 | 0.00 | 0.00 | 51 | 1004.8 |
| 20260504175357 | 78 | 216 | 6.1 | 12.2 | 0.00 | 0.00 | 0.00 | 49 | 1004.8 |
| 20260504174832 | 78 | 254 | 6.1 | 12.2 | 0.00 | 0.00 | 0.00 | 48 | 1004.9 |
| 20260504174333 | 77 | 221 | 7.8 | 13.9 | 0.00 | 0.00 | 0.00 | 49 | 1005.0 |
| 20260504174035 | 77 | 216 | 7.0 | 13.9 | 0.00 | 0.00 | 0.00 | 48 | 1005.1 |
| 20260504173311 | 77 | 231 | 6.1 | 13.0 | 0.00 | 0.00 | 0.00 | 51 | 1005.2 |
| 20260504172809 | 76 | 218 | 7.8 | 13.0 | 0.00 | 0.00 | 0.00 | 49 | 1005.1 |
| 20260504172308 | 76 | 227 | 7.0 | 13.0 | 0.00 | 0.00 | 0.00 | 51 | 1005.1 |
| 20260504171807 | 76 | 196 | 6.1 | 11.3 | 0.00 | 0.00 | 0.00 | 51 | 1005.0 |
| 20260504171306 | 75 | 154 | 7.0 | 13.0 | 0.00 | 0.00 | 0.00 | 50 | 1005.0 |
| 20260504170809 | 75 | 211 | 6.1 | 13.0 | 0.00 | 0.00 | 0.00 | 51 | 1005.2 |
| 20260504170245 | 75 | 195 | 7.0 | 13.9 | 0.00 | 0.00 | 0.00 | 53 | 1005.4 |
| 20260504160411 | 72 | 228 | 9.6 | 16.5 | 0.00 | 0.00 | 0.00 | 53 | 1005.1 |
| 20260504151012 | 70 | 236 | 11.3 | 20.0 | 0.00 | 0.00 | 0.00 | 56 | 1005.1 |
| 20260504150255 | 70 | 227 | 12.2 | 21.7 | 0.00 | 0.00 | 0.00 | 56 | 1005.2 |
| 20260504141044 | 68 | 222 | 9.6 | 18.2 | 0.00 | 0.00 | 0.00 | 59 | 1005.5 |
| 20260504140542 | 67 | 200 | 8.7 | 14.8 | 0.00 | 0.00 | 0.00 | 59 | 1005.5 |
| 20260504130806 | 65 | 213 | 8.7 | 15.6 | 0.00 | 0.00 | 0.00 | 61 | 1005.5 |
| 20260504130247 | 64 | 227 | 8.7 | 15.6 | 0.00 | 0.00 | 0.00 | 61 | 1005.5 |
| 20260504110714 | 64 | 221 | 8.7 | 14.8 | 0.00 | 0.00 | 0.00 | 59 | 1005.6 |
| 20260504110212 | 64 | 209 | 8.7 | 14.8 | 0.00 | 0.00 | 0.00 | 58 | 1005.6 |